Regional Weather Roundup
Issued by NWS Jackson, KY

Home | Current Version | Previous Version | Graphics & Text | Print | Product List | Glossary On
Versions: 1 2 3 4 5 6 7 8 9 10 11 12 13 14 15 16 17 18 19 20 21 22 23 24 25 26 27 28 29 30 31 32 33 34 35 36 37 38 39 40 41 42 43 44 45 46 47 48 49 50
000
ASUS43 KJKL 242210
RWRJKL

EAST KENTUCKY HOURLY WEATHER ROUNDUP
NATIONAL WEATHER SERVICE JACKSON KY
600 PM EDT SUN MAY 24 2015

NOTE: "FAIR" INDICATES FEW OR NO CLOUDS BELOW 12,000 FEET WITH
NO SIGNIFICANT WEATHER AND/OR OBSTRUCTIONS TO VISIBILITY.

* THESE REPORTS ARE NOT UNDER NWS QUALITY CONTROL AND MAY NOT
  REPORT WEATHER SUCH AS PRECIPITATION AND FOG.

KYZ079-080-083-085-087-088-110-112-115-119-120-242300
...EASTERN KENTUCKY...

CITY           SKY/WX    TMP DP  RH WIND       PRES   REMARKS
JACKSON        SUNNY     82  50  32 VRB5      30.21F
LONDON         SUNNY     82  45  27 VRB7      30.20F
SOMERSET*      SUNNY     81  50  34 S9        30.20S
MONTICELLO*    SUNNY     82  57  42 S12       30.21F
MIDDLESBORO*   SUNNY     82  51  33 S5        30.22F
HARLAN APT*    CLEAR     81  46  30 CALM      30.24F
HAZARD APT*    CLEAR     84  46  26 S5        30.21F
BLACK MTN*       N/A     70  50  49 S2          N/A
PIKEVILLE APT* SUNNY     81  50  34 SE3       30.23F
BIG SANDY*     CLEAR     83  53  35 S5        30.22F
MOREHEAD APT*  PTCLDY    82  54  36 VRB7G14   30.21F
$$

KYZ035-036-041-042-044-050-067-078-099-242300
...CENTRAL KENTUCKY...

CITY           SKY/WX    TMP DP  RH WIND       PRES   REMARKS
MT STERLING*   SUNNY     82  52  34 SW7       30.20F
FLEMING/MASON* SUNNY    N/A N/A N/A SE13G18   30.19F
DANVILLE*      SUNNY     82  54  36 S10       30.19F
RICHMOND*      SUNNY     82  48  30 SE8       30.18F
LEXINGTON      SUNNY     83  54  36 S10       30.17F
FRANKFORT      MOSUNNY   83  54  36 S14       30.14F
$$

KYZ091>093-OHZ055-061-077-WVZ005-015-034-035-042-242300
...SOUTHERN OHIO/WEST VIRGINIA...

CITY           SKY/WX    TMP DP  RH WIND       PRES   REMARKS
COVINGTON      MOSUNNY   83  54  36 S18       30.15F
COLUMBUS       MOSUNNY   82  52  35 S8        30.17F
DAYTON         MOSUNNY   83  51  33 S15       30.15F
WILMINGTON     SUNNY     82  46  28 S16G22    30.16F
HUNTINGTON     MOSUNNY   82  54  37 SW10      30.20F
CHARLESTON     MOSUNNY   84  52  33 SW7       30.21F
PINEVILLE*     SUNNY     83  50  32 MISG      30.30S
BECKLEY        MOSUNNY   79  47  32 S10       30.29F
BLUEFIELD      SUNNY     77  45  32 S10G16    30.33S
$$

VAZ002-007-008-TNZ017-027-036-066-071-242300
...SOUTHWEST VIRGINIA/EAST TENNESSEE...

CITY           SKY/WX    TMP DP  RH WIND       PRES   REMARKS
WISE*          SUNNY     79  41  25 S6        30.31F
JONESVILLE*    CLEAR     82  48  30 S5        30.25F
ABINGDON*      SUNNY     81  48  31 S10       30.28S
BRISTOL        MOSUNNY   83  48  29 SW8       30.25S
KNOXVILLE      MOSUNNY   83  53  35 SW9       30.20F
OAK RIDGE      SUNNY     84  54  35 MISG      30.22F
CROSSVILLE     SUNNY     77  55  46 S7        30.23F
NASHVILLE      MOSUNNY   83  64  52 S13G20    30.11F
$$

...KEY TO REMARKS...
VSB - VISIBILITY IN MILES
WCI - WIND CHILL INDEX
HX  - HEAT INDEX

$$



USA.gov is the U.S. government's official web portal to all federal, state and local government web resources and services.